sat.trackr.live / text

‹ back to catalog

STARLINK-36174

NORAD 67166 · 2025-303D

PAYLOAD ACTIVE UNKNOWN

§ Identity

Operator
Country
US
Launch date
2025-12-17
Launch site
AFETR
Launch vehicle
Mass (kg)
RCS (m²)

Purposes: comms

External: N2YO · Heavens-Above · Gunter

§ Orbital elements

Epoch: 2026-09-20T03:03:40.333824Z

Period
94.27 min
Inclination
43.0014°
Eccentricity
0.0001331
Mean motion
15.27597989 rev/d
Perigee alt
482.1 km
Apogee alt
483.9 km
Semi-major
6,861.1 km
B*
3.4374e-4
RAAN
292.4857°
Arg perigee
274.9283°
Mean anomaly
85.1417°
Rev number
4,247

§ Raw data

STARLINK-361741 67166U 25303D   26263.12755016  .00009214  00000+0  34374-3 0  99942 67166  43.0014 292.4857 0001331 274.9283  85.1417 15.27597989 42475

JSON: /api/v1/satellites/67166 · /tle

For live sub-satellite position, see the globe view (requires WebGL).

§ Visibility from observer

Set your observer location to see the next 7 days of passes ≥ 10°. The values pass through the URL so the page stays shareable.

No JS? Fill the form by hand. The geolocation button needs JavaScript.